Location: Ash Swamp
(41.5170°N, 74.6157°W)
Time: 16:13:01
(UTC+00:00)

Resurs 1-4 Rocket - Pass Details

Date: 14 July 2020
Orbit: 800 x 814 km, 98.6° (Epoch: 04 August)

Event Time Altitude Azimuth Distance (km) Brightness Sun altitude
Rises 06:26:42 0° 15° (NNE) 3,344 6.7 -24.1°
Reaches altitude 10° 06:29:04 10° 18° (NNE) 2,407 5.7 -23.9°
Maximum altitude 06:34:23 72° 102° (ESE) 851 2.1 -23.5°
Enters shadow 06:35:35 53° 167° (SSE) 988 2.2 -23.4°
